Time,TemperatureF,DewpointF,PressureIn,WindDirection,WindDirectionDegrees,WindSpeedMPH,WindSpeedGustMPH,Humidity,HourlyPrecipIn,Conditions,Clouds,dailyrainin,SoftwareType,DateUTC
2013-01-19 00:10:00,26.4,25.9,30.23,NNE,22,0.0,-999.0,98,-99.99,,,0.00,Acu-Link.com,2013-01-19 05:10:00,
2013-01-19 00:25:00,26.2,25.7,30.23,NNW,337,0.0,-999.0,98,-99.99,,,0.00,Acu-Link.com,2013-01-19 05:25:00,
2013-01-19 00:40:00,26.4,25.9,30.23,SE,135,1.7,-999.0,98,-99.99,,,0.00,Acu-Link.com,2013-01-19 05:40:00,
2013-01-19 00:56:00,26.1,25.6,30.22,ESE,112,1.7,-999.0,98,-99.99,,,0.00,Acu-Link.com,2013-01-19 05:56:00,
2013-01-19 01:11:00,25.9,25.4,30.22,ESE,112,0.0,-999.0,98,-99.99,,,0.00,Acu-Link.com,2013-01-19 06:11:00,
2013-01-19 01:26:00,26.1,25.6,30.22,ESE,112,0.0,-999.0,98,-99.99,,,0.00,Acu-Link.com,2013-01-19 06:26:00,
2013-01-19 01:42:00,26.2,25.7,30.22,ESE,112,0.0,-999.0,98,-99.99,,,0.00,Acu-Link.com,2013-01-19 06:42:00,
2013-01-19 01:57:00,26.2,25.7,30.21,ESE,112,1.7,-999.0,98,-99.99,,,0.00,Acu-Link.com,2013-01-19 06:57:00,
2013-01-19 02:12:00,26.4,25.9,30.22,NNE,22,1.7,-999.0,98,-99.99,,,0.00,Acu-Link.com,2013-01-19 07:12:00,
2013-01-19 02:27:00,26.8,26.3,30.22,ENE,67,0.0,-999.0,98,-99.99,,,0.00,Acu-Link.com,2013-01-19 07:27:00,
2013-01-19 02:43:00,27.0,26.5,30.22,NE,45,0.0,-999.0,98,-99.99,,,0.00,Acu-Link.com,2013-01-19 07:43:00,
2013-01-19 02:58:00,27.0,26.5,30.22,ESE,112,0.0,-999.0,98,-99.99,,,0.00,Acu-Link.com,2013-01-19 07:58:00,
2013-01-19 03:13:00,26.2,25.7,30.22,NNE,22,0.0,-999.0,98,-99.99,,,0.00,Acu-Link.com,2013-01-19 08:13:00,
2013-01-19 03:29:00,25.9,25.4,30.22,East,90,0.0,-999.0,98,-99.99,,,0.00,Acu-Link.com,2013-01-19 08:29:00,
2013-01-19 03:44:00,25.3,24.8,30.23,East,90,1.1,-999.0,98,-99.99,,,0.00,Acu-Link.com,2013-01-19 08:44:00,
2013-01-19 03:59:00,25.2,24.7,30.21,East,90,1.7,-999.0,98,-99.99,,,0.00,Acu-Link.com,2013-01-19 08:59:00,
2013-01-19 04:35:00,25.2,24.7,30.22,East,90,0.0,-999.0,98,-99.99,,,0.00,Acu-Link.com,2013-01-19 09:35:00,
2013-01-19 04:50:00,25.3,24.8,30.21,ESE,112,0.0,-999.0,98,-99.99,,,0.00,Acu-Link.com,2013-01-19 09:50:00,
2013-01-19 05:05:00,25.5,25.0,30.20,East,90,1.7,-999.0,98,-99.99,,,0.00,Acu-Link.com,2013-01-19 10:05:00,
2013-01-19 05:21:00,26.2,25.7,30.20,ENE,67,0.0,-999.0,98,-99.99,,,0.00,Acu-Link.com,2013-01-19 10:21:00,
2013-01-19 05:36:00,26.2,25.7,30.20,East,90,0.0,-999.0,98,-99.99,,,0.00,Acu-Link.com,2013-01-19 10:36:00,
2013-01-19 05:51:00,25.9,25.4,30.20,East,90,0.0,-999.0,98,-99.99,,,0.00,Acu-Link.com,2013-01-19 10:51:00,
2013-01-19 06:06:00,25.7,25.2,30.20,NE,45,0.0,-999.0,98,-99.99,,,0.00,Acu-Link.com,2013-01-19 11:06:00,
2013-01-19 07:56:00,25.3,24.8,30.23,WNW,292,0.0,-999.0,98,-99.99,,,0.00,Acu-Link.com,2013-01-19 12:56:00,
2013-01-19 08:11:00,25.5,25.0,30.23,SSE,157,0.0,-999.0,98,-99.99,,,0.00,Acu-Link.com,2013-01-19 13:11:00,
2013-01-19 08:26:00,25.7,25.2,30.23,SW,225,0.0,-999.0,98,-99.99,,,0.00,Acu-Link.com,2013-01-19 13:26:00,
2013-01-19 08:42:00,26.1,25.6,30.23,SSE,157,0.0,-999.0,98,-99.99,,,0.00,Acu-Link.com,2013-01-19 13:42:00,
2013-01-19 08:57:00,26.8,26.3,30.23,ESE,112,0.0,-999.0,98,-99.99,,,0.00,Acu-Link.com,2013-01-19 13:57:00,
2013-01-19 09:12:00,27.9,27.4,30.23,NNE,22,0.0,-999.0,98,-99.99,,,0.00,Acu-Link.com,2013-01-19 14:12:00,
2013-01-19 09:28:00,28.4,27.9,30.22,South,180,0.0,-999.0,98,-99.99,,,0.00,Acu-Link.com,2013-01-19 14:28:00,
2013-01-19 09:43:00,30.0,29.5,30.21,West,270,0.0,-999.0,98,-99.99,,,0.00,Acu-Link.com,2013-01-19 14:43:00,
2013-01-19 09:58:00,31.5,31.0,30.22,ENE,67,0.0,-999.0,98,-99.99,,,0.00,Acu-Link.com,2013-01-19 14:58:00,
2013-01-19 10:13:00,31.8,31.3,30.22,East,90,0.0,-999.0,98,-99.99,,,0.00,Acu-Link.com,2013-01-19 15:13:00,
2013-01-19 10:29:00,33.1,32.6,30.21,North,0,0.0,-999.0,98,-99.99,,,0.00,Acu-Link.com,2013-01-19 15:29:00,
2013-01-19 10:44:00,31.5,31.0,30.21,North,0,0.0,-999.0,98,-99.99,,,0.00,Acu-Link.com,2013-01-19 15:44:00,
2013-01-19 10:59:00,32.4,31.9,30.21,South,180,0.0,-999.0,98,-99.99,,,0.00,Acu-Link.com,2013-01-19 15:59:00,
2013-01-19 11:15:00,33.4,32.9,30.20,SE,135,0.0,-999.0,98,-99.99,,,0.00,Acu-Link.com,2013-01-19 16:15:00,
2013-01-19 11:30:00,35.4,34.9,30.20,NNE,22,0.0,-999.0,98,-99.99,,,0.01,Acu-Link.com,2013-01-19 16:30:00,
2013-01-19 11:45:00,39.0,35.2,30.19,ENE,67,1.1,-999.0,86,-99.99,,,0.02,Acu-Link.com,2013-01-19 16:45:00,
2013-01-19 12:01:00,47.1,35.2,30.18,West,270,1.7,-999.0,63,-99.99,,,0.03,Acu-Link.com,2013-01-19 17:01:00,
2013-01-19 12:16:00,48.0,35.6,30.16,WNW,292,2.2,-999.0,62,-99.99,,,0.07,Acu-Link.com,2013-01-19 17:16:00,
2013-01-19 12:46:00,47.3,35.7,30.13,SSE,157,2.2,-999.0,64,-99.99,,,0.10,Acu-Link.com,2013-01-19 17:46:00,
2013-01-19 13:02:00,48.2,35.8,30.11,South,180,1.7,-999.0,62,-99.99,,,0.12,Acu-Link.com,2013-01-19 18:02:00,
2013-01-19 13:17:00,48.2,35.4,30.10,South,180,4.7,-999.0,61,-99.99,,,0.15,Acu-Link.com,2013-01-19 18:17:00,
2013-01-19 13:32:00,47.5,35.1,30.08,SW,225,2.2,-999.0,62,-99.99,,,0.17,Acu-Link.com,2013-01-19 18:32:00,
2013-01-19 13:48:00,52.5,35.4,30.07,SW,225,2.7,-999.0,52,-99.99,,,0.18,Acu-Link.com,2013-01-19 18:48:00,
2013-01-19 14:03:00,51.1,36.8,30.05,South,180,1.7,-999.0,58,-99.99,,,0.20,Acu-Link.com,2013-01-19 19:03:00,
2013-01-19 14:18:00,50.9,36.7,30.04,SSE,157,1.7,-999.0,58,-99.99,,,0.20,Acu-Link.com,2013-01-19 19:18:00,
2013-01-19 14:49:00,53.6,36.4,30.02,West,270,2.7,-999.0,52,-99.99,,,0.21,Acu-Link.com,2013-01-19 19:49:00,
2013-01-19 15:19:00,55.2,35.3,30.01,WSW,247,4.2,-999.0,47,-99.99,,,0.22,Acu-Link.com,2013-01-19 20:19:00,
2013-01-19 15:35:00,54.9,35.1,30.00,SW,225,1.1,-999.0,47,-99.99,,,0.22,Acu-Link.com,2013-01-19 20:35:00,
2013-01-19 15:50:00,55.4,30.9,30.01,SW,225,2.7,-999.0,39,-99.99,,,0.22,Acu-Link.com,2013-01-19 20:50:00,
2013-01-19 16:05:00,55.9,30.0,30.00,SSW,202,2.7,-999.0,37,-99.99,,,0.22,Acu-Link.com,2013-01-19 21:05:00,
2013-01-19 17:07:00,50.2,30.2,29.98,South,180,4.7,-999.0,46,-99.99,,,0.22,Acu-Link.com,2013-01-19 22:07:00,
2013-01-19 17:22:00,48.7,29.4,29.98,South,180,2.7,-999.0,47,-99.99,,,0.22,Acu-Link.com,2013-01-19 22:22:00,
2013-01-19 18:23:00,42.4,30.3,29.98,ESE,112,2.2,-999.0,62,-99.99,,,0.22,Acu-Link.com,2013-01-19 23:23:00,
2013-01-19 18:38:00,41.9,30.2,29.98,SSE,157,2.2,-999.0,63,-99.99,,,0.22,Acu-Link.com,2013-01-19 23:38:00,
2013-01-19 19:09:00,40.8,30.0,30.00,South,180,1.7,-999.0,65,-99.99,,,0.22,Acu-Link.com,2013-01-20 00:09:00,
2013-01-19 19:24:00,40.5,29.3,29.99,SSW,202,3.7,-999.0,64,-99.99,,,0.22,Acu-Link.com,2013-01-20 00:24:00,
2013-01-19 19:40:00,40.3,29.5,29.99,West,270,2.2,-999.0,65,-99.99,,,0.22,Acu-Link.com,2013-01-20 00:40:00,
2013-01-19 19:55:00,40.5,29.3,29.99,SW,225,1.7,-999.0,64,-99.99,,,0.22,Acu-Link.com,2013-01-20 00:55:00,
2013-01-19 20:10:00,39.9,29.5,29.98,WSW,247,2.2,-999.0,66,-99.99,,,0.22,Acu-Link.com,2013-01-20 01:10:00,
2013-01-19 20:25:00,39.7,29.7,29.99,WNW,292,1.7,-999.0,67,-99.99,,,0.22,Acu-Link.com,2013-01-20 01:25:00,
2013-01-19 21:27:00,40.6,29.8,29.96,West,270,3.2,-999.0,65,-99.99,,,0.22,Acu-Link.com,2013-01-20 02:27:00,
2013-01-19 21:42:00,42.1,29.6,29.96,SW,225,5.3,-999.0,61,-99.99,,,0.22,Acu-Link.com,2013-01-20 02:42:00,
2013-01-19 21:57:00,43.2,29.9,29.95,SSE,157,6.8,-999.0,59,-99.99,,,0.22,Acu-Link.com,2013-01-20 02:57:00,
2013-01-19 22:13:00,42.8,29.5,29.96,SSW,202,2.2,-999.0,59,-99.99,,,0.22,Acu-Link.com,2013-01-20 03:13:00,
2013-01-19 22:43:00,43.2,28.6,29.95,SSW,202,2.7,-999.0,56,-99.99,,,0.22,Acu-Link.com,2013-01-20 03:43:00,
2013-01-19 22:58:00,43.0,28.4,29.96,South,180,2.7,-999.0,56,-99.99,,,0.22,Acu-Link.com,2013-01-20 03:58:00,
2013-01-19 23:14:00,41.7,28.4,29.96,SW,225,5.3,-999.0,59,-99.99,,,0.22,Acu-Link.com,2013-01-20 04:14:00,
2013-01-19 23:29:00,41.2,28.8,29.95,SW,225,2.7,-999.0,61,-99.99,,,0.22,Acu-Link.com,2013-01-20 04:29:00,
2013-01-19 23:44:00,41.0,28.6,29.95,SW,225,2.7,-999.0,61,-99.99,,,0.22,Acu-Link.com,2013-01-20 04:44:00,